| time (UTC) | temp F | wind direction | speed MPH | gust MPH | rain 1hr in | rain 24hr in | rain mn in | humidity % | barometer mb |
| 20260510092231 | 58 | 46 | 0.0 | 2.0 | 0.00 | 0.00 | 0.00 | 73 | 1016.5 |
| 20260510091732 | 58 | 88 | 0.0 | 3.0 | 0.00 | 0.00 | 0.00 | 73 | 1016.5 |
| 20260510091229 | 58 | 317 | 0.0 | 3.0 | 0.00 | 0.00 | 0.00 | 73 | 1016.6 |
| 20260510090734 | 58 | 133 | 0.0 | 3.0 | 0.00 | 0.00 | 0.00 | 73 | 1016.6 |
| 20260510090230 | 58 | 236 | 0.0 | 5.0 | 0.00 | 0.00 | 0.00 | 72 | 1016.7 |
| 20260510085703 | 58 | 258 | 0.0 | 5.0 | 0.00 | 0.00 | 0.00 | 73 | 1016.7 |
| 20260510085205 | 58 | 36 | 0.0 | 6.0 | 0.00 | 0.00 | 0.00 | 72 | 1016.6 |
| 20260510084704 | 58 | 264 | 0.0 | 6.0 | 0.00 | 0.00 | 0.00 | 73 | 1016.7 |
| 20260510084200 | 58 | 231 | 0.0 | 3.0 | 0.00 | 0.00 | 0.00 | 71 | 1016.7 |
| 20260510083703 | 58 | 32 | 0.0 | 2.0 | 0.00 | 0.00 | 0.00 | 73 | 1016.6 |
| 20260510083203 | 58 | 49 | 0.0 | 2.0 | 0.00 | 0.00 | 0.00 | 73 | 1016.6 |
| 20260510082700 | 58 | 93 | 0.0 | 2.0 | 0.00 | 0.00 | 0.00 | 74 | 1016.6 |
| 20260510081704 | 57 | 32 | 0.0 | 4.0 | 0.00 | 0.00 | 0.00 | 76 | 1016.6 |
| 20260510081132 | 57 | 314 | 0.0 | 1.0 | 0.00 | 0.00 | 0.00 | 77 | 1016.6 |
| 20260510080130 | 57 | 235 | 0.0 | 3.0 | 0.00 | 0.00 | 0.00 | 76 | 1016.7 |
| 20260510075612 | 57 | 173 | 0.0 | 1.0 | 0.00 | 0.00 | 0.00 | 78 | 1016.7 |
| 20260510075105 | 57 | 48 | 0.0 | 2.0 | 0.00 | 0.00 | 0.00 | 79 | 1016.7 |
| 20260510074606 | 57 | 174 | 0.0 | 2.0 | 0.00 | 0.00 | 0.00 | 78 | 1016.7 |
| 20260510074105 | 57 | 203 | 0.0 | 2.0 | 0.00 | 0.00 | 0.00 | 79 | 1016.6 |
| 20260510073108 | 56 | 115 | 0.0 | 2.0 | 0.00 | 0.00 | 0.00 | 80 | 1016.7 |
| 20260510072103 | 55 | 330 | 0.0 | 1.0 | 0.00 | 0.00 | 0.00 | 81 | 1016.8 |
| 20260510071609 | 55 | 157 | 0.0 | 2.0 | 0.00 | 0.00 | 0.00 | 81 | 1016.7 |
| 20260510071048 | 55 | 240 | 0.0 | 2.0 | 0.00 | 0.00 | 0.00 | 82 | 1016.7 |
| 20260510070534 | 55 | 136 | 0.0 | 1.0 | 0.00 | 0.00 | 0.00 | 83 | 1016.7 |
| 20260510070038 | 55 | 143 | 0.0 | 3.0 | 0.00 | 0.00 | 0.00 | 83 | 1016.7 |
| 20260510065530 | 55 | 230 | 0.0 | 3.0 | 0.00 | 0.00 | 0.00 | 83 | 1016.6 |
| 20260510065031 | 55 | 250 | 0.0 | 5.0 | 0.00 | 0.00 | 0.00 | 84 | 1016.5 |
| 20260510064513 | 55 | 250 | 0.0 | 5.0 | 0.00 | 0.00 | 0.00 | 84 | 1016.5 |
| 20260510064025 | 55 | 72 | 0.0 | 2.0 | 0.00 | 0.00 | 0.00 | 85 | 1016.4 |
| 20260510063523 | 54 | 78 | 0.0 | 2.0 | 0.00 | 0.00 | 0.00 | 87 | 1016.5 |
| 20260510063024 | 54 | 106 | 0.0 | 2.0 | 0.00 | 0.00 | 0.00 | 86 | 1016.5 |
| 20260510062017 | 54 | 323 | 0.0 | 2.0 | 0.00 | 0.00 | 0.00 | 87 | 1016.5 |
| 20260510061520 | 54 | 70 | 0.0 | 2.0 | 0.00 | 0.00 | 0.00 | 87 | 1016.5 |
| 20260510061001 | 54 | 321 | 0.0 | 1.0 | 0.00 | 0.00 | 0.00 | 88 | 1016.5 |
| 20260510060457 | 53 | 70 | 0.0 | 1.0 | 0.00 | 0.00 | 0.00 | 88 | 1016.5 |
| 20260510055957 | 53 | 115 | 0.0 | 1.0 | 0.00 | 0.00 | 0.00 | 88 | 1016.5 |
| 20260510055455 | 53 | 246 | 0.0 | 1.0 | 0.00 | 0.00 | 0.00 | 89 | 1016.6 |
| 20260510054948 | 53 | 254 | 0.0 | 0.0 | 0.00 | 0.00 | 0.00 | 89 | 1016.5 |
| 20260510054439 | 53 | 262 | 0.0 | 1.0 | 0.00 | 0.00 | 0.00 | 89 | 1016.4 |
| 20260510053933 | 52 | 248 | 0.0 | 1.0 | 0.00 | 0.00 | 0.00 | 89 | 1016.4 |
| 20260510053433 | 52 | 63 | 0.0 | 1.0 | 0.00 | 0.00 | 0.00 | 88 | 1016.3 |
| 20260510052927 | 52 | 67 | 0.0 | 1.0 | 0.00 | 0.00 | 0.00 | 88 | 1016.3 |
| 20260510051919 | 51 | 34 | 0.0 | 3.0 | 0.00 | 0.00 | 0.00 | 88 | 1016.3 |
| 20260510051411 | 51 | 77 | 0.0 | 4.0 | 0.00 | 0.00 | 0.00 | 88 | 1016.3 |
| 20260510050909 | 50 | 83 | 0.0 | 4.0 | 0.00 | 0.00 | 0.00 | 88 | 1016.3 |
| 20260510050411 | 50 | 82 | 0.0 | 1.0 | 0.00 | 0.00 | 0.00 | 88 | 1016.4 |
| 20260510045904 | 49 | 71 | 0.0 | 1.0 | 0.00 | 0.00 | 0.00 | 88 | 1016.4 |
| 20260510045404 | 49 | 62 | 0.0 | 1.0 | 0.00 | 0.00 | 0.00 | 88 | 1016.4 |
| 20260510044906 | 49 | 67 | 0.0 | 1.0 | 0.00 | 0.00 | 0.00 | 88 | 1016.6 |
| 20260510044405 | 49 | 68 | 0.0 | 1.0 | 0.00 | 0.00 | 0.00 | 88 | 1016.5 |
| 20260510043903 | 48 | 262 | 0.0 | 1.0 | 0.00 | 0.00 | 0.00 | 88 | 1016.6 |
| 20260510043407 | 48 | 227 | 0.0 | 0.0 | 0.00 | 0.00 | 0.00 | 88 | 1016.8 |
| 20260510042902 | 48 | 226 | 0.0 | 1.0 | 0.00 | 0.00 | 0.00 | 88 | 1016.7 |
| 20260510041908 | 48 | 229 | 0.0 | 0.0 | 0.00 | 0.00 | 0.00 | 88 | 1016.6 |
| 20260510040903 | 48 | 229 | 0.0 | 1.0 | 0.00 | 0.00 | 0.00 | 88 | 1016.6 |
| 20260510040411 | 48 | 229 | 0.0 | 0.0 | 0.00 | 0.00 | 0.00 | 88 | 1016.6 |
| 20260510035837 | 48 | 229 | 0.0 | 0.0 | 0.00 | 0.00 | 0.00 | 88 | 1016.7 |
| 20260510034832 | 49 | 229 | 0.0 | 1.0 | 0.00 | 0.00 | 0.00 | 88 | 1016.7 |
| 20260510034332 | 49 | 229 | 0.0 | 1.0 | 0.00 | 0.00 | 0.00 | 88 | 1016.7 |
| 20260510033830 | 49 | 139 | 0.0 | 0.0 | 0.00 | 0.00 | 0.00 | 88 | 1016.6 |
| 20260510033331 | 49 | 139 | 0.0 | 0.0 | 0.00 | 0.00 | 0.00 | 88 | 1016.8 |
| 20260510032809 | 49 | 139 | 0.0 | 0.0 | 0.00 | 0.00 | 0.00 | 88 | 1016.8 |
| 20260510031804 | 49 | 139 | 0.0 | 0.0 | 0.00 | 0.00 | 0.00 | 87 | 1016.9 |
| 20260510031255 | 49 | 128 | 0.0 | 0.0 | 0.00 | 0.00 | 0.00 | 87 | 1016.8 |
| 20260510030234 | 50 | 120 | 0.0 | 0.0 | 0.00 | 0.00 | 0.00 | 87 | 1016.8 |
| 20260510025205 | 50 | 119 | 0.0 | 0.0 | 0.00 | 0.00 | 0.00 | 87 | 1016.7 |
| 20260510024705 | 50 | 111 | 0.0 | 0.0 | 0.00 | 0.00 | 0.00 | 87 | 1016.8 |
| 20260510024205 | 50 | 111 | 0.0 | 0.0 | 0.00 | 0.00 | 0.00 | 87 | 1016.8 |
| 20260510023708 | 50 | 153 | 0.0 | 1.0 | 0.00 | 0.00 | 0.00 | 87 | 1016.8 |
| 20260510023206 | 50 | 105 | 0.0 | 1.0 | 0.00 | 0.00 | 0.00 | 86 | 1016.8 |
| 20260510022705 | 50 | 124 | 0.0 | 2.0 | 0.00 | 0.00 | 0.00 | 86 | 1016.8 |
| 20260510022206 | 49 | 251 | 0.0 | 2.0 | 0.00 | 0.00 | 0.00 | 86 | 1016.8 |
| 20260510021705 | 50 | 250 | 0.0 | 1.0 | 0.00 | 0.00 | 0.00 | 85 | 1016.8 |
| 20260510021134 | 49 | 250 | 0.0 | 2.0 | 0.00 | 0.00 | 0.00 | 85 | 1016.8 |
| 20260510020635 | 49 | 255 | 0.0 | 2.0 | 0.00 | 0.00 | 0.00 | 85 | 1016.8 |
| 20260510020131 | 49 | 224 | 0.0 | 1.0 | 0.00 | 0.00 | 0.00 | 85 | 1016.8 |
| 20260510015627 | 49 | 224 | 0.0 | 1.0 | 0.00 | 0.00 | 0.00 | 85 | 1016.8 |
| 20260510015126 | 49 | 224 | 0.0 | 1.0 | 0.00 | 0.00 | 0.00 | 86 | 1016.9 |
| 20260510014610 | 49 | 224 | 0.0 | 2.0 | 0.00 | 0.00 | 0.00 | 86 | 1016.9 |
| 20260510014108 | 49 | 243 | 0.0 | 2.0 | 0.00 | 0.00 | 0.00 | 86 | 1017.0 |
| 20260510013607 | 49 | 294 | 0.0 | 1.0 | 0.00 | 0.00 | 0.00 | 87 | 1017.0 |
| 20260510013109 | 49 | 217 | 0.0 | 1.0 | 0.00 | 0.00 | 0.00 | 87 | 1017.0 |
| 20260510012605 | 49 | 217 | 0.0 | 1.0 | 0.00 | 0.00 | 0.00 | 88 | 1017.0 |
| 20260510011604 | 49 | 217 | 0.0 | 0.0 | 0.00 | 0.00 | 0.00 | 88 | 1017.1 |
| 20260510011107 | 50 | 217 | 0.0 | 1.0 | 0.00 | 0.00 | 0.00 | 88 | 1017.1 |
| 20260510010534 | 50 | 212 | 0.0 | 0.0 | 0.00 | 0.00 | 0.00 | 88 | 1017.1 |
| 20260510010043 | 50 | 212 | 0.0 | 0.0 | 0.00 | 0.00 | 0.00 | 88 | 1017.1 |
| 20260510005533 | 50 | 212 | 0.0 | 0.0 | 0.00 | 0.00 | 0.00 | 88 | 1017.1 |
| 20260510004516 | 50 | 212 | 0.0 | 0.0 | 0.00 | 0.00 | 0.00 | 87 | 1017.1 |
| 20260510004024 | 50 | 212 | 0.0 | 0.0 | 0.00 | 0.00 | 0.00 | 87 | 1017.2 |
| 20260510003020 | 50 | 212 | 0.0 | 1.0 | 0.00 | 0.00 | 0.00 | 87 | 1017.2 |
| 20260510002520 | 50 | 212 | 0.0 | 0.0 | 0.00 | 0.00 | 0.00 | 87 | 1017.2 |
| 20260510001519 | 51 | 212 | 0.0 | 0.0 | 0.00 | 0.00 | 0.00 | 86 | 1017.3 |
| 20260510001026 | 51 | 212 | 0.0 | 1.0 | 0.00 | 0.00 | 0.00 | 86 | 1017.4 |
| 20260510000530 | 51 | 212 | 0.0 | 1.0 | 0.00 | 0.00 | 0.00 | 86 | 1017.4 |
| 20260510000009 | 51 | 212 | 0.0 | 1.0 | 0.00 | 0.00 | 0.00 | 86 | 1017.4 |
| 20260509235518 | 51 | 212 | 0.0 | 1.0 | 0.00 | 0.00 | 0.00 | 87 | 1017.5 |
| 20260509235001 | 51 | 212 | 0.0 | 0.0 | 0.00 | 0.00 | 0.00 | 86 | 1017.6 |
| 20260509234446 | 51 | 212 | 0.0 | 1.0 | 0.00 | 0.00 | 0.00 | 87 | 1017.6 |
| 20260509233938 | 51 | 212 | 0.0 | 1.0 | 0.00 | 0.00 | 0.00 | 87 | 1017.7 |
| 20260509233431 | 51 | 212 | 0.0 | 0.0 | 0.00 | 0.00 | 0.00 | 87 | 1017.6 |
| 20260509232935 | 51 | 212 | 0.0 | 1.0 | 0.00 | 0.00 | 0.00 | 87 | 1017.6 |
| 20260509232433 | 51 | 212 | 0.0 | 1.0 | 0.00 | 0.00 | 0.00 | 87 | 1017.7 |
| 20260509231933 | 51 | 278 | 0.0 | 1.0 | 0.00 | 0.00 | 0.00 | 87 | 1017.6 |
| 20260509231432 | 51 | 277 | 0.0 | 1.0 | 0.00 | 0.00 | 0.00 | 87 | 1017.6 |
| 20260509230931 | 51 | 278 | 0.0 | 1.0 | 0.00 | 0.00 | 0.00 | 87 | 1017.5 |
| 20260509225917 | 51 | 86 | 0.0 | 0.0 | 0.00 | 0.00 | 0.00 | 87 | 1017.4 |
| 20260509224344 | 51 | 71 | 0.0 | 0.0 | 0.00 | 0.00 | 0.00 | 87 | 1017.6 |
| 20260509223331 | 51 | 71 | 0.0 | 0.0 | 0.00 | 0.00 | 0.00 | 86 | 1017.6 |
| 20260509222808 | 51 | 71 | 0.0 | 0.0 | 0.00 | 0.00 | 0.00 | 86 | 1017.7 |
| 20260509222307 | 51 | 117 | 0.0 | 0.0 | 0.00 | 0.00 | 0.00 | 86 | 1017.8 |
| 20260509221235 | 51 | 102 | 0.0 | 0.0 | 0.00 | 0.00 | 0.00 | 85 | 1017.7 |
| 20260509220735 | 51 | 102 | 0.0 | 0.0 | 0.00 | 0.00 | 0.00 | 85 | 1017.8 |
| 20260509220233 | 51 | 102 | 0.0 | 0.0 | 0.00 | 0.00 | 0.00 | 85 | 1017.8 |
| 20260509215731 | 51 | 102 | 0.0 | 0.0 | 0.00 | 0.00 | 0.00 | 85 | 1017.8 |
| 20260509215208 | 51 | 102 | 0.0 | 0.0 | 0.00 | 0.00 | 0.00 | 84 | 1017.8 |
| 20260509214143 | 52 | 102 | 0.0 | 0.0 | 0.00 | 0.00 | 0.00 | 84 | 1017.7 |
| 20260509213633 | 52 | 102 | 0.0 | 0.0 | 0.00 | 0.00 | 0.00 | 83 | 1017.7 |
| 20260509212636 | 52 | 102 | 0.0 | 0.0 | 0.00 | 0.00 | 0.00 | 82 | 1017.9 |
| 20260509211607 | 52 | 102 | 0.0 | 0.0 | 0.00 | 0.00 | 0.00 | 82 | 1018.0 |
| 20260509211109 | 52 | 102 | 0.0 | 0.0 | 0.00 | 0.00 | 0.00 | 82 | 1018.0 |
| 20260509210606 | 53 | 103 | 0.0 | 0.0 | 0.00 | 0.00 | 0.00 | 81 | 1018.0 |
| 20260509210106 | 53 | 103 | 0.0 | 0.0 | 0.00 | 0.00 | 0.00 | 81 | 1018.0 |
| 20260509205538 | 53 | 103 | 0.0 | 0.0 | 0.00 | 0.00 | 0.00 | 81 | 1017.9 |
| 20260509205033 | 53 | 96 | 0.0 | 0.0 | 0.00 | 0.00 | 0.00 | 80 | 1018.0 |
| 20260509204542 | 53 | 96 | 0.0 | 0.0 | 0.00 | 0.00 | 0.00 | 80 | 1018.0 |
| 20260509203533 | 54 | 65 | 0.0 | 0.0 | 0.00 | 0.00 | 0.00 | 79 | 1018.0 |
| 20260509202531 | 54 | 65 | 0.0 | 0.0 | 0.00 | 0.00 | 0.00 | 79 | 1018.0 |
| 20260509201536 | 54 | 65 | 0.0 | 0.0 | 0.00 | 0.00 | 0.00 | 78 | 1017.9 |
| 20260509201035 | 54 | 65 | 0.0 | 0.0 | 0.00 | 0.00 | 0.00 | 78 | 1018.0 |
| 20260509200532 | 55 | 65 | 0.0 | 0.0 | 0.00 | 0.00 | 0.00 | 77 | 1017.9 |
| 20260509200027 | 55 | 65 | 0.0 | 0.0 | 0.00 | 0.00 | 0.00 | 77 | 1017.8 |
| 20260509195521 | 55 | 73 | 0.0 | 0.0 | 0.00 | 0.00 | 0.00 | 77 | 1017.8 |
| 20260509195029 | 55 | 73 | 0.0 | 0.0 | 0.00 | 0.00 | 0.00 | 76 | 1017.7 |
| 20260509194511 | 55 | 73 | 0.0 | 0.0 | 0.00 | 0.00 | 0.00 | 76 | 1017.7 |
| 20260509193955 | 56 | 71 | 0.0 | 0.0 | 0.00 | 0.00 | 0.00 | 75 | 1017.7 |
| 20260509193451 | 56 | 71 | 0.0 | 0.0 | 0.00 | 0.00 | 0.00 | 74 | 1017.6 |
| 20260509192936 | 56 | 71 | 0.0 | 0.0 | 0.00 | 0.00 | 0.00 | 74 | 1017.6 |
| 20260509192432 | 56 | 71 | 0.0 | 0.0 | 0.00 | 0.00 | 0.00 | 74 | 1017.6 |
| 20260509191932 | 57 | 86 | 0.0 | 0.0 | 0.00 | 0.00 | 0.00 | 73 | 1017.5 |
| 20260509191430 | 57 | 56 | 0.0 | 1.0 | 0.00 | 0.00 | 0.00 | 73 | 1017.5 |
| 20260509190932 | 57 | 87 | 0.0 | 1.0 | 0.00 | 0.00 | 0.00 | 72 | 1017.5 |
| 20260509185914 | 58 | 111 | 0.0 | 1.0 | 0.00 | 0.00 | 0.00 | 71 | 1017.5 |
| 20260509185412 | 58 | 53 | 0.0 | 1.0 | 0.00 | 0.00 | 0.00 | 71 | 1017.5 |
| 20260509184911 | 58 | 354 | 0.0 | 1.0 | 0.00 | 0.00 | 0.00 | 70 | 1017.4 |
| 20260509184406 | 58 | 49 | 0.0 | 1.0 | 0.00 | 0.00 | 0.00 | 69 | 1017.4 |
| 20260509183906 | 59 | 352 | 0.0 | 1.0 | 0.00 | 0.00 | 0.00 | 68 | 1017.3 |
| 20260509183408 | 59 | 70 | 0.0 | 1.0 | 0.00 | 0.00 | 0.00 | 68 | 1017.3 |
| 20260509182337 | 60 | 271 | 0.0 | 1.0 | 0.00 | 0.00 | 0.00 | 66 | 1017.3 |
| 20260509181345 | 60 | 164 | 0.0 | 1.0 | 0.00 | 0.00 | 0.00 | 66 | 1017.3 |
| 20260509180845 | 60 | 51 | 0.0 | 1.0 | 0.00 | 0.00 | 0.00 | 66 | 1017.3 |
| 20260509180335 | 61 | 153 | 0.0 | 1.0 | 0.00 | 0.00 | 0.00 | 65 | 1017.4 |
| 20260509175836 | 61 | 82 | 0.0 | 1.0 | 0.00 | 0.00 | 0.00 | 64 | 1017.3 |
| 20260509175333 | 61 | 68 | 0.0 | 1.0 | 0.00 | 0.00 | 0.00 | 63 | 1017.3 |
| 20260509174318 | 62 | 314 | 0.0 | 1.0 | 0.00 | 0.00 | 0.00 | 62 | 1017.3 |
| 20260509173826 | 62 | 235 | 0.0 | 1.0 | 0.00 | 0.00 | 0.00 | 61 | 1017.4 |
| 20260509173317 | 62 | 39 | 0.0 | 0.0 | 0.00 | 0.00 | 0.00 | 60 | 1017.5 |
| 20260509172810 | 62 | 39 | 0.0 | 1.0 | 0.00 | 0.00 | 0.00 | 59 | 1017.4 |
| 20260509172309 | 62 | 39 | 0.0 | 1.0 | 0.00 | 0.00 | 0.00 | 57 | 1017.4 |
| 20260509171807 | 62 | 64 | 0.0 | 1.0 | 0.00 | 0.00 | 0.00 | 56 | 1017.4 |
| 20260509171235 | 63 | 44 | 0.0 | 1.0 | 0.00 | 0.00 | 0.00 | 55 | 1017.4 |
| 20260509170746 | 62 | 41 | 0.0 | 1.0 | 0.00 | 0.00 | 0.00 | 55 | 1017.3 |
| 20260509170233 | 62 | 49 | 0.0 | 1.0 | 0.00 | 0.00 | 0.00 | 57 | 1017.2 |
| 20260509165713 | 62 | 35 | 0.0 | 1.0 | 0.00 | 0.00 | 0.00 | 56 | 1017.2 |
| 20260509164709 | 62 | 41 | 0.0 | 1.0 | 0.00 | 0.00 | 0.00 | 56 | 1017.3 |
| 20260509164146 | 62 | 41 | 0.0 | 1.0 | 0.00 | 0.00 | 0.00 | 56 | 1017.3 |
| 20260509163635 | 62 | 22 | 0.0 | 2.0 | 0.00 | 0.00 | 0.00 | 56 | 1017.3 |
| 20260509163134 | 62 | 25 | 0.0 | 2.0 | 0.00 | 0.00 | 0.00 | 56 | 1017.2 |
| 20260509162623 | 62 | 70 | 0.0 | 2.0 | 0.00 | 0.00 | 0.00 | 56 | 1017.2 |
| 20260509161605 | 62 | 49 | 0.0 | 2.0 | 0.00 | 0.00 | 0.00 | 55 | 1017.2 |
| 20260509161106 | 62 | 48 | 0.0 | 2.0 | 0.00 | 0.00 | 0.00 | 55 | 1017.2 |
| 20260509160609 | 62 | 30 | 0.0 | 4.0 | 0.00 | 0.00 | 0.00 | 54 | 1017.2 |
| 20260509160109 | 63 | 56 | 0.0 | 4.0 | 0.00 | 0.00 | 0.00 | 54 | 1017.2 |
| 20260509155538 | 63 | 23 | 0.0 | 3.0 | 0.00 | 0.00 | 0.00 | 54 | 1017.2 |
| 20260509155038 | 62 | 40 | 0.0 | 1.0 | 0.00 | 0.00 | 0.00 | 54 | 1017.1 |
| 20260509154536 | 62 | 40 | 0.0 | 1.0 | 0.00 | 0.00 | 0.00 | 54 | 1017.2 |
| 20260509154040 | 63 | 45 | 0.0 | 1.0 | 0.00 | 0.00 | 0.00 | 54 | 1017.3 |
| 20260509153533 | 63 | 46 | 0.0 | 3.0 | 0.00 | 0.00 | 0.00 | 53 | 1017.3 |
| 20260509153034 | 63 | 38 | 0.0 | 3.0 | 0.00 | 0.00 | 0.00 | 53 | 1017.4 |
| 20260509152516 | 64 | 47 | 0.0 | 4.0 | 0.00 | 0.00 | 0.00 | 53 | 1017.4 |
| 20260509151525 | 64 | 39 | 0.0 | 4.0 | 0.00 | 0.00 | 0.00 | 53 | 1017.5 |
| 20260509151016 | 64 | 32 | 0.0 | 4.0 | 0.00 | 0.00 | 0.00 | 54 | 1017.5 |
| 20260509150029 | 63 | 25 | 0.0 | 5.0 | 0.00 | 0.00 | 0.00 | 56 | 1017.5 |
| 20260509145022 | 63 | 53 | 0.0 | 1.0 | 0.00 | 0.00 | 0.00 | 54 | 1017.6 |
| 20260509144523 | 63 | 57 | 0.0 | 4.0 | 0.00 | 0.00 | 0.00 | 54 | 1017.6 |
| 20260509143526 | 64 | 47 | 0.0 | 5.0 | 0.00 | 0.00 | 0.00 | 50 | 1017.8 |
| 20260509142517 | 64 | 61 | 0.0 | 3.0 | 0.00 | 0.00 | 0.00 | 50 | 1017.9 |
| 20260509142020 | 63 | 51 | 0.0 | 1.0 | 0.00 | 0.00 | 0.00 | 51 | 1017.9 |
| 20260509141519 | 63 | 49 | 0.0 | 1.0 | 0.00 | 0.00 | 0.00 | 51 | 1017.9 |
| 20260509141021 | 63 | 45 | 0.0 | 1.0 | 0.00 | 0.00 | 0.00 | 51 | 1018.0 |
| 20260509140519 | 64 | 47 | 0.0 | 1.0 | 0.00 | 0.00 | 0.00 | 51 | 1018.1 |
| 20260509140023 | 64 | 252 | 0.0 | 1.0 | 0.00 | 0.00 | 0.00 | 52 | 1018.1 |
| 20260509135509 | 64 | 49 | 0.0 | 5.0 | 0.00 | 0.00 | 0.00 | 51 | 1018.1 |
| 20260509135021 | 65 | 65 | 1.0 | 5.0 | 0.00 | 0.00 | 0.00 | 50 | 1018.0 |
| 20260509134518 | 65 | 22 | 1.0 | 6.0 | 0.00 | 0.00 | 0.00 | 50 | 1018.1 |
| 20260509134023 | 65 | 50 | 0.0 | 6.0 | 0.00 | 0.00 | 0.00 | 48 | 1018.1 |
| 20260509133522 | 65 | 48 | 0.0 | 6.0 | 0.00 | 0.00 | 0.00 | 51 | 1018.1 |
| 20260509133017 | 65 | 36 | 0.0 | 6.0 | 0.00 | 0.00 | 0.00 | 51 | 1018.2 |
| 20260509132002 | 66 | 104 | 0.0 | 3.0 | 0.00 | 0.00 | 0.00 | 49 | 1018.3 |
| 20260509131459 | 66 | 248 | 0.0 | 3.0 | 0.00 | 0.00 | 0.00 | 50 | 1018.3 |
| 20260509130450 | 67 | 58 | 0.0 | 5.0 | 0.00 | 0.00 | 0.00 | 45 | 1018.5 |
| 20260509125935 | 67 | 79 | 0.0 | 5.0 | 0.00 | 0.00 | 0.00 | 46 | 1018.5 |
| 20260509125431 | 68 | 37 | 0.0 | 2.0 | 0.00 | 0.00 | 0.00 | 45 | 1018.5 |
| 20260509124932 | 68 | 356 | 0.0 | 1.0 | 0.00 | 0.00 | 0.00 | 46 | 1018.6 |
| 20260509123905 | 67 | 61 | 0.0 | 1.0 | 0.00 | 0.00 | 0.00 | 47 | 1018.6 |
| 20260509123407 | 67 | 57 | 0.0 | 3.0 | 0.00 | 0.00 | 0.00 | 46 | 1018.8 |
| 20260509122911 | 67 | 58 | 0.0 | 5.0 | 0.00 | 0.00 | 0.00 | 46 | 1018.8 |
| 20260509121833 | 68 | 98 | 0.0 | 1.0 | 0.00 | 0.00 | 0.00 | 45 | 1019.0 |
| 20260509121336 | 68 | 105 | 0.0 | 5.0 | 0.00 | 0.00 | 0.00 | 46 | 1019.0 |
| 20260509120830 | 68 | 48 | 0.0 | 5.0 | 0.00 | 0.00 | 0.00 | 47 | 1019.0 |
| 20260509120332 | 67 | 67 | 1.0 | 4.0 | 0.00 | 0.00 | 0.00 | 47 | 1019.1 |
| 20260509115332 | 67 | 58 | 0.0 | 4.0 | 0.00 | 0.00 | 0.00 | 47 | 1019.1 |
| 20260509114824 | 68 | 57 | 0.0 | 4.0 | 0.00 | 0.00 | 0.00 | 46 | 1019.2 |
| 20260509114319 | 67 | 34 | 0.0 | 4.0 | 0.00 | 0.00 | 0.00 | 47 | 1019.2 |
| 20260509113809 | 67 | 53 | 0.0 | 8.0 | 0.00 | 0.00 | 0.00 | 48 | 1019.3 |
| 20260509112805 | 67 | 41 | 0.0 | 6.0 | 0.00 | 0.00 | 0.00 | 51 | 1019.2 |
| 20260509112307 | 67 | 32 | 0.0 | 4.0 | 0.00 | 0.00 | 0.00 | 49 | 1019.2 |
| 20260509111806 | 67 | 8 | 0.0 | 4.0 | 0.00 | 0.00 | 0.00 | 48 | 1019.3 |
| 20260509111304 | 67 | 60 | 0.0 | 4.0 | 0.00 | 0.00 | 0.00 | 49 | 1019.2 |
| 20260509110317 | 67 | 47 | 0.0 | 4.0 | 0.00 | 0.00 | 0.00 | 50 | 1019.3 |
| 20260509105803 | 67 | 59 | 1.0 | 5.0 | 0.00 | 0.00 | 0.00 | 51 | 1019.2 |
| 20260509104805 | 65 | 29 | 0.0 | 3.0 | 0.00 | 0.00 | 0.00 | 53 | 1019.3 |
| 20260509104239 | 64 | 136 | 0.0 | 7.0 | 0.00 | 0.00 | 0.00 | 53 | 1019.4 |
| 20260509103736 | 65 | 33 | 0.0 | 7.0 | 0.00 | 0.00 | 0.00 | 52 | 1019.5 |
| 20260509103233 | 66 | 50 | 1.0 | 7.0 | 0.00 | 0.00 | 0.00 | 53 | 1019.4 |
| 20260509102716 | 65 | 39 | 1.0 | 9.0 | 0.00 | 0.00 | 0.00 | 54 | 1019.4 |
| 20260509102208 | 65 | 53 | 1.0 | 9.0 | 0.00 | 0.00 | 0.00 | 50 | 1019.4 |
| 20260509101708 | 65 | 13 | 1.0 | 9.0 | 0.00 | 0.00 | 0.00 | 52 | 1019.5 |
| 20260509101204 | 65 | 41 | 1.0 | 9.0 | 0.00 | 0.00 | 0.00 | 52 | 1019.5 |
| 20260509100704 | 65 | 33 | 0.0 | 4.0 | 0.00 | 0.00 | 0.00 | 56 | 1019.5 |
| 20260509100208 | 65 | 47 | 0.0 | 6.0 | 0.00 | 0.00 | 0.00 | 54 | 1019.6 |
| 20260509095704 | 65 | 62 | 0.0 | 6.0 | 0.00 | 0.00 | 0.00 | 53 | 1019.6 |
| 20260509095205 | 64 | 70 | 0.0 | 4.0 | 0.00 | 0.00 | 0.00 | 54 | 1019.6 |
| 20260509094703 | 64 | 48 | 0.0 | 5.0 | 0.00 | 0.00 | 0.00 | 55 | 1019.6 |
| 20260509094204 | 64 | 26 | 0.0 | 5.0 | 0.00 | 0.00 | 0.00 | 53 | 1019.6 |
| 20260509093703 | 64 | 34 | 0.0 | 2.0 | 0.00 | 0.00 | 0.00 | 53 | 1019.6 |
| 20260509093204 | 65 | 15 | 0.0 | 2.0 | 0.00 | 0.00 | 0.00 | 56 | 1019.6 |
| 20260509092703 | 65 | 58 | 0.0 | 4.0 | 0.00 | 0.00 | 0.00 | 55 | 1019.7 |